Temperature
21 21 21 21 21 22 23 24 24 24 24 24 24 23 22 21 20 18 18 18 18 17 17 17 17 17 17 17 17 18 17 17 17 17 17 17 17 17 17 17 17 17 17 17 18 18 17 17 18
21 21 21 22 22 23 23 23 23 24 24 24 24 23 22 21 19 18 18 18 18 17 17 17 17 17 17 17 17 17 17 17 17 17 17 17 17 17 17 17 17 17 17 17 17 17 17 17 17
21 21 22 23 23 23 23 24 24 25 24 24 23 22 21 20 19 18 18 18 18 17 17 18 17 17 17 17 17 17 17 17 17 17 17 17 17 17 17 17 17 17 17 17 17 17 17 17 17
21 22 23 23 23 24 24 24 24 25 24 24 23 22 20 20 19 18 18 18 17 17 17 17 17 17 17 17 17 17 17 17 17 17 17 17 17 16 16 16 16 16 16 17 17 17 17 17 17
22 22 23 23 23 24 25 25 25 25 24 23 22 21 19 19 19 19 19 18 18 17 17 17 17 17 17 17 17 17 17 17 17 17 17 16 16 16 16 16 16 16 16 16 16 16 17 17 17
22 23 23 23 23 24 25 25 25 24 24 23 22 20 19 19 19 19 19 19 18 18 18 18 17 17 17 17 17 17 17 17 17 16 16 16 16 16 16 16 16 16 16 16 16 16 16 17 17
22 23 23 23 23 23 25 25 25 24 24 23 22 20 19 19 19 19 19 19 18 18 18 18 17 17 17 17 17 17 17 16 16 16 16 16 16 16 16 16 16 16 16 16 16 16 16 17 17
22 23 23 23 23 23 24 25 24 24 24 23 22 21 19 19 19 19 19 19 18 18 18 18 18 17 17 17 17 17 17 16 16 16 16 16 16 16 16 16 16 16 16 16 16 16 16 16 17
23 22 22 23 23 23 24 24 24 24 23 23 22 21 20 19 19 19 19 19 19 19 18 18 18 18 17 17 17 17 17 16 16 16 16 16 16 16 16 16 16 16 16 16 16 16 16 16 16
24 22 23 24 24 24 24 24 24 24 23 22 21 20 20 20 20 20 19 19 19 19 19 18 18 18 18 17 17 17 17 16 16 16 16 16 16 16 16 16 16 16 16 16 16 16 16 16 16
24 23 23 23 24 24 24 24 24 23 22 21 21 20 20 20 20 20 20 19 19 19 19 19 19 18 18 18 17 17 17 17 17 17 16 16 16 16 16 16 16 16 16 16 16 16 16 16 16
24 23 23 23 23 24 24 23 23 23 22 21 21 21 21 21 21 21 20 20 19 19 19 19 19 19 18 18 18 17 17 17 17 17 17 16 16 16 16 16 16 16 16 16 16 16 16 16 16
23 23 23 23 23 23 24 23 22 22 22 21 21 21 21 21 21 21 20 20 19 19 19 19 19 19 18 18 18 18 17 17 17 17 17 16 16 16 16 16 16 16 16 16 16 16 16 16 16
23 23 23 23 23 23 23 23 23 22 22 22 21 21 21 21 21 21 21 20 20 19 19 19 19 19 18 18 18 18 17 17 17 17 17 16 16 16 16 16 16 16 16 16 16 16 16 16 16
23 23 22 22 22 22 23 22 23 22 22 22 22 21 21 21 21 21 21 21 20 20 19 19 19 19 18 18 18 18 17 17 17 17 17 16 16 16 16 16 16 16 16 16 15 16 16 16 16
23 22 21 22 23 22 23 21 22 22 22 22 22 21 21 21 21 21 21 20 20 20 19 19 19 18 18 18 18 17 17 17 17 16 16 16 16 16 16 16 15 15 15 15 15 15 15 15 15
21 21 21 22 23 23 22 21 22 22 22 22 22 21 21 21 21 21 21 20 20 20 19 19 19 18 18 18 17 17 17 17 17 16 16 16 16 16 16 15 15 15 15 15 15 15 15 15 15
21 21 21 22 22 23 22 21 22 22 22 22 22 22 21 21 21 21 20 20 20 20 19 19 19 18 18 18 17 17 17 17 16 16 16 16 16 16 15 15 15 15 15 15 15 15 15 15 15
22 21 21 22 23 22 22 22 22 22 22 22 22 22 22 22 21 21 20 20 20 20 19 19 19 18 18 18 17 17 17 17 16 16 16 16 15 15 15 15 15 15 15 15 15 15 15 15 15
22 21 21 22 23 23 22 22 23 23 23 23 23 23 22 22 21 20 20 20 20 20 19 19 19 18 18 18 17 17 17 16 16 16 16 15 15 15 15 15 15 15 14 14 14 14 14 14 15
22 22 22 22 23 23 23 22 23 23 23 23 23 23 22 22 21 21 20 20 20 20 19 19 19 18 18 18 17 17 17 16 16 16 16 15 15 15 15 15 15 15 14 14 14 14 14 14 14
22 23 23 23 22 22 23 21 23 23 23 23 23 23 23 22 22 21 20 20 20 19 19 19 19 18 18 18 17 17 17 17 16 16 16 15 15 15 15 15 15 15 14 14 14 14 14 14 14
22 23 23 23 23 23 23 22 23 23 22 23 23 23 23 22 22 21 21 20 20 19 19 19 19 18 18 18 17 17 17 17 16 16 16 16 15 15 15 15 15 15 14 14 14 14 14 14 14
23 23 23 23 23 22 23 23 23 23 24 24 24 23 23 22 22 21 20 20 19 19 19 19 18 18 18 17 17 17 17 17 16 16 16 16 15 15 15 15 15 15 14 14 14 14 13 13 13
23 22 21 21 21 22 25 24 24 25 26 25 25 24 23 22 22 21 20 20 19 19 19 18 18 18 18 17 17 17 17 16 16 16 16 16 15 15 15 15 15 14 14 14 14 14 13 13 13
23 23 21 21 22 23 25 25 25 26 26 26 25 24 23 23 22 21 20 20 19 19 18 18 18 18 17 17 17 17 17 16 16 16 16 15 15 15 15 14 14 14 14 14 14 13 13 13 13
24 23 24 23 23 23 24 25 25 26 25 25 25 24 24 23 22 21 20 19 19 19 18 18 18 18 17 17 17 17 17 16 16 16 15 15 15 15 14 14 14 14 14 14 13 13 13 13 13
25 24 24 23 22 22 24 25 24 24 24 25 25 24 23 23 22 21 20 19 19 18 18 18 18 18 17 17 17 17 16 16 16 15 15 15 15 14 14 14 14 14 14 13 13 13 13 13 12
24 24 24 24 24 23 22 23 26 25 25 25 25 24 23 23 22 21 20 19 19 18 18 18 18 17 17 17 17 17 16 16 16 15 15 15 15 14 14 14 14 13 13 13 13 13 12 12 12
25 25 25 23 24 24 23 23 27 26 26 26 25 24 24 23 22 21 20 19 18 18 18 18 18 17 17 17 17 16 16 16 15 15 15 15 14 14 14 14 13 13 13 13 12 12 12 12 12
Wind_Speed
13 11 6 3 3 1 5 6 8 8 8 9 12 12 14 14 10 10 3 7 12 13 14 14 14 15 15 16 16 15 15 14 13 13 12 12 12 12 12 11 11 11 11 11 10 10 9 9 9
11 8 4 3 2 2 6 8 10 10 9 9 12 15 15 13 12 9 5 8 12 14 14 14 15 15 16 16 15 15 14 13 13 12 11 11 11 11 11 11 11 10 10 10 9 9 9 9 8
11 8 4 3 1 4 7 9 10 10 8 10 11 12 9 8 10 6 7 11 13 15 15 15 15 15 15 15 15 14 13 12 11 11 11 10 10 10 10 10 10 10 10 10 9 8 8 8 8
6 4 4 0 6 8 9 10 9 9 8 9 12 10 10 11 9 10 10 13 15 14 16 15 15 15 15 14 14 13 12 12 11 11 10 10 10 10 10 10 10 9 9 9 9 8 8 8 8
4 3 2 3 8 8 9 9 9 9 10 15 16 14 13 12 12 12 10 13 14 13 15 15 15 15 14 14 13 13 12 12 11 10 10 10 9 9 10 10 9 9 9 9 9 8 8 8 7
3 3 1 5 8 7 8 9 11 13 15 16 16 14 10 10 11 10 10 11 13 13 14 15 15 15 14 14 13 12 11 10 10 9 8 8 8 8 8 8 9 9 9 8 8 8 7 7 7
3 3 1 6 8 7 7 8 10 11 12 12 12 12 9 10 8 9 10 10 10 11 12 13 14 14 14 13 12 10 9 8 7 6 5 4 4 5 7 8 8 8 8 7 7 7 6 6 6
3 2 3 5 8 7 7 8 10 11 10 11 11 10 10 10 9 9 9 9 8 8 8 9 12 13 13 12 11 9 8 6 5 3 1 1 1 3 5 7 6 6 6 5 5 5 5 6 6
3 1 2 6 7 7 7 9 10 10 11 12 14 16 14 13 11 9 8 8 7 8 7 7 8 9 9 11 9 9 7 5 4 3 2 2 1 2 4 6 3 2 3 4 4 6 7 7 7
1 2 4 5 7 9 8 9 9 10 13 16 17 16 15 12 11 9 8 9 8 7 7 6 6 6 7 7 7 5 6 4 3 3 4 4 4 4 4 3 2 3 3 4 6 8 8 8 5
1 4 6 7 9 9 9 9 9 11 12 14 15 16 13 12 10 9 9 9 8 6 5 6 6 6 7 5 6 4 4 4 6 6 6 7 6 4 4 1 1 3 2 4 6 6 5 5 4
5 7 6 7 7 8 9 9 9 10 12 13 13 14 12 11 9 9 10 9 8 6 5 5 5 6 6 6 4 3 4 5 5 7 7 6 4 4 4 4 5 5 4 4 5 4 6 6 6
9 8 8 8 7 8 10 10 11 12 12 13 12 11 10 10 9 9 9 10 9 7 6 5 6 6 6 3 2 5 4 4 5 6 7 7 4 3 4 3 5 6 7 5 4 4 4 4 5
9 11 9 8 7 7 10 10 9 11 11 12 12 10 9 9 9 8 8 9 9 8 7 6 5 5 5 3 2 3 4 5 6 6 8 9 7 5 4 4 4 5 6 6 6 5 4 3 3
11 11 8 6 6 6 7 8 9 10 10 10 10 10 9 8 7 7 7 7 8 9 8 6 5 6 6 5 4 5 6 7 5 6 8 8 8 8 6 4 4 5 9 9 6 6 5 4 5
7 6 5 4 5 5 4 7 9 8 9 8 9 9 8 6 7 7 6 7 8 8 8 5 6 6 6 5 4 5 7 6 6 8 10 10 10 9 6 3 4 7 9 6 4 5 5 5 5
4 5 8 6 6 5 4 7 7 6 8 8 8 9 9 7 7 7 6 6 7 7 8 6 6 5 5 4 3 5 5 4 7 9 9 10 11 11 7 4 5 8 5 4 6 5 4 5 5
7 6 6 6 6 6 6 7 7 8 8 9 9 9 10 9 8 8 6 5 5 6 8 7 5 5 4 2 3 3 4 3 6 6 7 8 10 11 9 5 6 7 4 5 5 6 5 4 5
6 6 6 5 5 6 7 7 8 8 8 8 9 9 10 10 10 8 7 5 5 6 7 7 6 5 4 2 2 3 3 2 3 4 7 7 9 9 7 5 4 4 4 5 6 5 6 5 5
7 8 7 5 5 6 8 7 8 9 10 9 10 10 9 10 11 9 7 6 5 6 6 6 6 5 5 3 2 2 2 2 3 3 6 8 8 9 8 5 4 3 3 5 5 5 4 5 5
5 8 8 6 6 6 6 6 9 10 9 9 8 9 10 11 12 11 9 8 6 5 5 6 6 6 5 4 2 2 2 1 3 3 3 4 6 6 7 6 5 4 3 4 4 5 5 4 5
4 5 6 6 6 4 7 4 8 12 10 10 9 8 9 9 10 10 9 9 7 6 5 6 6 6 5 5 3 2 3 3 3 2 2 2 6 6 7 6 6 4 4 4 5 5 4 4 4
4 6 6 7 6 5 7 4 6 12 12 13 12 11 9 10 10 10 9 9 8 7 5 5 6 6 6 5 4 3 3 3 3 3 3 3 3 5 6 7 5 4 3 4 5 5 5 4 4
3 5 6 7 5 5 8 6 4 10 14 15 15 14 12 11 10 10 10 9 8 8 6 5 7 6 5 4 4 4 4 3 3 3 3 2 2 2 4 5 5 4 4 4 4 4 4 4 4
5 4 3 4 4 4 6 5 3 8 11 12 14 14 13 12 11 11 11 10 9 9 7 6 7 6 5 3 4 5 4 2 2 2 2 2 2 2 3 4 3 3 4 5 4 4 4 4 4
8 6 2 2 2 2 4 4 4 8 8 8 10 12 13 13 12 12 12 10 9 9 8 7 7 6 5 3 3 4 4 2 2 2 2 2 2 2 2 2 3 4 5 5 4 3 4 4 4
5 5 5 3 5 3 3 4 6 8 8 8 9 10 12 13 13 12 12 11 10 10 8 8 8 7 6 4 3 3 4 3 3 2 3 2 2 2 3 2 2 3 3 4 4 3 4 4 4
6 5 4 3 2 2 2 4 6 11 10 10 10 10 10 11 12 11 11 11 10 9 8 8 8 7 6 5 3 4 3 3 3 2 3 3 3 2 2 3 3 3 3 3 3 3 4 4 3
7 6 5 4 4 1 2 2 3 9 9 10 11 10 10 11 11 11 10 10 10 9 9 8 7 7 6 5 4 5 3 3 3 2 2 1 1 1 2 2 3 3 3 3 3 3 4 4 5
6 6 6 4 4 3 1 1 3 7 9 8 8 10 11 11 11 11 11 11 10 10 9 9 8 7 6 5 5 4 4 3 2 2 1 1 2 2 3 3 3 4 4 4 4 4 4 3 4
Wind_Direction
288 269 261 264 260 222 71 76 83 76 66 61 67 73 70 56 67 93 125 102 99 99 95 86 81 82 83 83 82 81 79 76 74 72 70 69 68 65 61 57 56 53 51 49 46 43 40 37 32
288 292 283 246 257 104 83 79 78 79 92 89 75 76 74 71 79 95 104 95 97 95 90 87 86 85 84 84 83 82 81 78 74 71 68 67 65 62 58 54 52 50 48 45 42 39 35 33 28
270 272 267 259 6 81 96 92 93 91 86 86 80 64 58 75 79 102 119 105 95 93 93 91 90 88 88 87 86 84 82 79 75 70 66 64 61 58 55 52 51 47 45 42 39 36 31 27 23
274 267 250 251 73 77 100 109 110 101 88 84 87 73 67 74 96 116 117 105 100 99 98 97 94 91 88 87 86 84 80 76 72 68 66 63 60 57 54 50 47 44 42 39 35 32 29 26 20
255 261 245 99 89 90 95 102 103 92 84 80 85 92 89 87 102 106 105 104 104 104 105 104 100 95 91 88 85 82 79 76 72 70 67 63 61 58 53 48 44 41 39 36 32 28 25 21 13
283 262 218 117 107 95 92 102 101 98 97 99 100 99 96 98 97 98 97 96 104 110 111 115 112 106 100 93 86 81 79 76 73 71 68 67 67 65 58 51 42 39 36 31 27 22 16 10 2
280 284 156 124 116 103 93 94 99 102 100 100 108 105 108 103 102 101 99 98 103 111 120 124 126 119 111 103 97 92 88 86 83 79 77 78 83 83 74 61 44 38 32 26 21 12 2 352 342
288 298 131 124 113 100 98 98 98 95 97 110 112 112 122 126 121 108 103 102 105 106 112 119 125 128 126 120 114 112 111 111 112 110 113 186 180 130 97 73 57 39 25 13 6 351 333 321 314
284 285 123 114 118 118 117 105 100 99 94 84 87 108 124 133 128 120 115 112 105 107 112 109 113 117 122 124 126 142 139 146 163 185 240 263 201 131 118 93 90 37 350 332 322 312 306 301 294
236 108 94 101 117 122 118 113 113 108 100 97 100 110 125 133 130 128 126 118 111 106 105 110 113 115 101 88 111 120 112 121 115 75 48 20 42 37 59 125 200 257 287 306 291 291 294 294 286
121 103 96 90 106 116 116 111 110 112 110 114 121 128 136 136 131 127 114 106 101 98 97 106 109 103 103 96 92 84 92 86 54 39 56 33 22 29 52 107 231 291 322 332 321 304 310 331 340
114 96 97 98 97 106 110 106 98 99 113 119 125 134 138 135 125 115 107 109 105 96 88 88 104 96 82 79 95 86 68 70 52 18 46 46 21 20 22 39 11 1 9 359 341 334 353 356 355
114 107 103 108 107 105 107 101 100 101 110 121 129 132 133 125 121 117 116 115 115 110 99 80 74 89 93 77 68 87 60 48 70 27 35 43 34 24 7 43 17 11 12 10 347 349 359 357 356
119 119 116 111 110 107 110 113 117 122 124 126 131 129 121 116 116 117 120 122 124 114 98 84 78 85 95 105 81 75 100 82 61 34 41 37 37 36 15 21 20 15 7 4 359 1 354 345 346
118 116 112 122 123 125 126 120 124 131 133 133 133 124 118 119 119 118 121 118 114 110 101 88 86 76 64 56 51 66 61 64 57 39 35 38 43 41 33 12 9 9 9 9 8 0 353 356 3
129 129 129 139 146 160 155 134 131 142 143 140 135 127 126 131 127 113 107 105 104 106 105 99 88 83 77 59 38 56 56 55 62 50 28 23 36 46 42 17 6 16 13 6 6 7 2 358 359
167 160 145 151 168 168 150 137 143 151 153 151 146 144 151 156 133 121 117 111 110 114 118 109 93 95 95 101 85 72 77 60 64 56 33 18 24 31 38 26 17 21 19 4 7 11 1 352 342
167 157 150 157 165 155 148 147 155 163 175 166 162 165 163 158 142 133 128 117 121 122 117 111 107 99 97 85 88 78 60 61 72 71 48 26 27 25 22 28 25 20 19 4 5 360 356 349 341
148 149 148 143 148 153 160 164 172 176 184 180 177 174 168 156 146 139 141 144 147 129 121 127 127 114 100 73 67 77 73 63 64 65 50 38 38 26 19 25 24 25 24 11 9 4 356 356 356
145 151 149 144 162 168 169 183 186 187 193 190 184 176 170 157 149 145 153 148 132 115 114 111 105 100 91 78 83 93 87 86 90 61 56 42 40 29 21 22 14 19 25 12 8 10 360 353 9
150 165 164 161 172 186 177 191 188 187 195 193 193 180 176 170 160 160 161 148 136 126 123 123 120 114 110 104 76 68 75 51 77 75 66 48 52 39 19 19 9 7 24 19 13 15 14 358 356
161 176 171 179 185 198 199 199 199 188 188 190 194 192 180 167 158 156 156 150 146 139 135 129 118 115 113 108 80 69 81 71 69 72 73 59 56 47 25 19 10 16 24 24 12 22 4 9 357
162 179 188 202 221 234 215 216 204 179 188 193 193 195 183 171 164 155 155 151 146 137 133 124 113 99 92 95 91 61 58 67 69 64 57 60 62 52 35 19 13 14 20 25 25 15 11 10 6
178 186 202 222 236 242 221 214 207 184 192 188 188 190 185 172 163 155 150 145 138 132 131 121 115 106 104 107 111 105 90 75 68 58 43 38 63 54 39 22 15 20 21 21 14 14 13 9 4
202 208 211 206 216 231 210 211 199 175 179 179 179 182 180 169 164 159 153 151 145 144 145 141 132 131 138 153 149 135 122 111 95 79 54 35 58 51 36 34 19 24 22 20 15 8 1 9 10
207 212 237 268 244 257 212 196 142 132 141 154 166 171 170 168 168 166 161 156 153 153 156 155 149 150 156 173 155 132 130 112 89 69 62 58 65 57 39 39 36 35 27 18 15 4 355 15 9
224 224 238 272 283 268 225 145 127 132 143 154 162 164 169 170 167 165 159 157 158 159 163 162 156 157 163 168 145 114 106 95 81 61 61 65 62 47 28 22 44 46 39 26 10 12 4 13 6
259 264 251 253 288 283 236 191 162 160 166 167 168 167 167 163 162 158 156 157 159 159 163 162 166 167 166 164 153 118 100 102 85 57 58 45 45 33 1 20 32 35 39 40 25 7 1 359 349
218 233 253 263 258 271 336 343 95 150 158 168 172 170 168 165 161 160 157 157 156 157 162 167 171 164 160 159 140 125 125 117 114 93 75 61 59 37 27 30 28 30 27 40 31 3 4 355 349
232 244 252 264 287 285 239 223 142 141 151 158 164 167 167 165 160 158 156 157 160 165 170 174 174 161 155 153 138 142 144 143 138 121 95 43 46 30 20 37 31 24 20 23 19 357 360 354 350
Height
1497 1497 1498 1499 1500 1501 1503 1500 1497 1498 1500 1502 1503 1505 1510 1514 1520 1533 1534 1532 1532 1532 1532 1532 1532 1533 1534 1534 1535 1536 1536 1537 1537 1538 1538 1538 1538 1538 1538 1538 1538 1538 1538 1538 1538 1538 1538 1538 1538
1498 1499 1500 1499 1501 1508 1508 1501 1501 1501 1503 1504 1506 1509 1513 1520 1525 1530 1532 1534 1534 1533 1533 1534 1534 1535 1535 1536 1537 1537 1538 1538 1538 1539 1539 1539 1539 1539 1539 1539 1539 1539 1539 1539 1538 1538 1538 1538 1538
1498 1499 1500 1498 1500 1505 1507 1502 1502 1503 1504 1505 1509 1513 1518 1525 1529 1531 1534 1535 1535 1535 1535 1535 1536 1536 1537 1537 1538 1539 1539 1539 1540 1540 1540 1540 1540 1540 1540 1540 1539 1539 1539 1539 1539 1538 1538 1538 1538
1501 1501 1499 1499 1504 1500 1500 1501 1502 1504 1506 1507 1511 1518 1525 1529 1531 1533 1535 1536 1536 1537 1537 1537 1538 1538 1538 1539 1539 1540 1540 1540 1541 1541 1541 1541 1541 1541 1541 1540 1540 1540 1539 1539 1539 1539 1538 1538 1538
1501 1501 1500 1503 1504 1500 1499 1501 1503 1505 1508 1512 1515 1524 1529 1533 1534 1536 1537 1538 1539 1539 1539 1539 1540 1540 1541 1541 1542 1542 1542 1542 1542 1542 1542 1542 1542 1542 1541 1541 1541 1540 1540 1540 1539 1539 1538 1538 1538
1502 1499 1504 1509 1507 1502 1502 1503 1505 1509 1512 1516 1520 1526 1532 1536 1536 1538 1539 1541 1541 1541 1541 1541 1542 1542 1543 1543 1543 1544 1544 1544 1544 1544 1544 1544 1543 1543 1543 1542 1541 1541 1540 1540 1540 1539 1539 1538 1538
1503 1501 1504 1506 1508 1507 1505 1506 1508 1511 1514 1518 1522 1527 1534 1537 1539 1540 1541 1542 1543 1543 1543 1544 1544 1544 1545 1545 1545 1545 1545 1546 1545 1545 1545 1545 1545 1544 1544 1543 1542 1542 1541 1540 1540 1539 1539 1539 1539
1502 1501 1504 1506 1510 1511 1508 1508 1511 1514 1517 1520 1522 1528 1535 1539 1540 1541 1543 1544 1545 1546 1547 1547 1547 1547 1547 1547 1547 1547 1547 1547 1547 1547 1547 1546 1546 1546 1545 1545 1544 1543 1542 1541 1541 1540 1540 1539 1539
1502 1505 1508 1507 1510 1511 1510 1511 1514 1517 1519 1522 1524 1529 1535 1539 1541 1543 1544 1546 1547 1548 1549 1549 1550 1550 1550 1550 1549 1549 1549 1549 1549 1549 1549 1548 1548 1548 1547 1546 1545 1544 1543 1542 1541 1541 1540 1540 1540
1501 1507 1507 1504 1505 1509 1511 1513 1516 1519 1522 1526 1530 1534 1537 1540 1542 1543 1545 1547 1548 1550 1551 1551 1551 1552 1552 1552 1552 1551 1551 1551 1551 1551 1550 1550 1550 1549 1548 1547 1546 1545 1544 1543 1542 1542 1541 1541 1540
1501 1505 1506 1506 1508 1510 1513 1515 1517 1520 1525 1529 1532 1536 1538 1541 1543 1545 1547 1548 1550 1551 1552 1553 1553 1554 1553 1553 1554 1554 1553 1553 1553 1553 1552 1551 1551 1550 1549 1548 1547 1546 1545 1544 1543 1542 1542 1541 1541
1503 1506 1507 1509 1511 1513 1515 1518 1520 1523 1527 1531 1534 1537 1539 1541 1544 1546 1548 1550 1551 1552 1553 1554 1555 1555 1555 1555 1555 1555 1555 1555 1554 1554 1553 1552 1552 1551 1550 1549 1548 1547 1546 1545 1544 1543 1543 1542 1542
1505 1509 1511 1513 1515 1516 1517 1520 1524 1528 1530 1533 1536 1539 1540 1543 1545 1547 1549 1551 1553 1554 1555 1555 1556 1556 1556 1557 1557 1556 1556 1556 1556 1555 1555 1554 1553 1552 1551 1550 1549 1548 1547 1545 1544 1544 1543 1542 1541
1507 1510 1514 1516 1518 1519 1521 1524 1526 1530 1533 1535 1537 1540 1542 1544 1546 1549 1551 1552 1554 1555 1556 1557 1557 1558 1558 1558 1558 1558 1558 1557 1557 1556 1556 1555 1554 1553 1552 1551 1550 1549 1547 1546 1545 1544 1543 1543 1542
1509 1513 1517 1519 1520 1522 1524 1527 1529 1532 1534 1536 1539 1541 1543 1546 1547 1549 1551 1553 1554 1556 1557 1558 1558 1559 1559 1559 1559 1559 1559 1558 1558 1557 1557 1556 1555 1554 1553 1552 1551 1549 1548 1547 1545 1544 1544 1543 1542
1512 1517 1524 1522 1522 1524 1527 1534 1531 1533 1535 1537 1540 1542 1544 1547 1548 1550 1552 1554 1555 1556 1558 1559 1560 1560 1560 1560 1560 1560 1560 1559 1559 1558 1557 1557 1556 1555 1554 1552 1551 1550 1548 1547 1546 1545 1544 1543 1542
1518 1525 1526 1525 1522 1523 1527 1533 1532 1534 1536 1538 1541 1543 1545 1547 1549 1551 1553 1554 1556 1557 1558 1559 1560 1560 1560 1561 1561 1561 1561 1560 1560 1559 1558 1557 1557 1556 1555 1553 1552 1551 1549 1548 1547 1545 1544 1543 1542
1523 1524 1524 1525 1522 1523 1528 1531 1532 1534 1536 1537 1540 1542 1544 1546 1549 1551 1553 1555 1556 1558 1558 1559 1560 1561 1561 1561 1562 1562 1561 1561 1561 1559 1559 1558 1557 1556 1555 1554 1553 1551 1550 1549 1547 1546 1545 1544 1543
1516 1521 1525 1523 1522 1524 1528 1531 1531 1533 1535 1536 1538 1540 1542 1545 1548 1550 1553 1555 1556 1558 1559 1559 1560 1561 1561 1562 1562 1562 1562 1562 1561 1560 1560 1559 1558 1557 1556 1555 1554 1552 1551 1549 1548 1547 1546 1545 1544
1515 1523 1525 1523 1521 1524 1528 1529 1528 1530 1532 1534 1536 1538 1541 1544 1547 1549 1552 1554 1556 1558 1559 1560 1561 1561 1561 1562 1562 1562 1562 1562 1561 1561 1560 1559 1558 1557 1557 1555 1554 1553 1552 1550 1549 1548 1547 1546 1545
1516 1520 1523 1524 1522 1522 1526 1531 1527 1527 1529 1531 1533 1536 1538 1542 1545 1548 1551 1553 1555 1557 1558 1559 1560 1561 1561 1561 1562 1562 1562 1562 1562 1561 1560 1560 1559 1558 1557 1556 1555 1554 1553 1551 1550 1549 1548 1547 1547
1521 1516 1518 1521 1525 1528 1526 1539 1527 1524 1526 1529 1531 1534 1536 1539 1543 1546 1549 1552 1554 1556 1558 1559 1560 1560 1561 1561 1562 1562 1562 1562 1562 1562 1561 1560 1559 1558 1557 1556 1555 1554 1553 1552 1551 1550 1549 1548 1547
1517 1515 1517 1520 1523 1527 1524 1531 1525 1519 1525 1525 1528 1531 1534 1537 1541 1544 1547 1550 1552 1554 1556 1558 1559 1560 1560 1561 1561 1562 1562 1562 1562 1562 1561 1561 1560 1559 1558 1557 1556 1555 1554 1553 1552 1550 1549 1549 1548
1513 1516 1518 1519 1523 1534 1522 1526 1526 1517 1516 1518 1522 1526 1530 1534 1538 1542 1545 1548 1551 1553 1555 1557 1558 1559 1559 1560 1561 1561 1562 1562 1562 1562 1561 1561 1560 1559 1558 1557 1556 1555 1554 1553 1552 1551 1550 1549 1548
1515 1524 1534 1537 1538 1531 1512 1517 1517 1505 1506 1511 1516 1522 1527 1531 1536 1540 1543 1546 1548 1551 1553 1555 1556 1558 1559 1560 1560 1561 1561 1561 1561 1561 1561 1561 1560 1559 1558 1557 1556 1555 1554 1553 1552 1551 1550 1549 1548
1514 1519 1536 1544 1539 1526 1511 1515 1507 1500 1504 1509 1513 1518 1523 1528 1533 1536 1540 1543 1546 1548 1551 1553 1555 1556 1557 1559 1560 1560 1561 1561 1561 1561 1561 1560 1560 1559 1558 1557 1556 1555 1554 1553 1552 1551 1550 1549 1548
1513 1516 1514 1523 1524 1528 1517 1507 1504 1501 1505 1509 1512 1517 1521 1525 1530 1534 1537 1540 1543 1546 1549 1551 1553 1555 1556 1557 1558 1559 1560 1560 1560 1560 1560 1560 1559 1559 1558 1557 1556 1555 1554 1552 1551 1550 1549 1549 1548
1508 1509 1514 1522 1532 1535 1521 1512 1511 1507 1507 1508 1511 1515 1519 1523 1528 1531 1535 1538 1541 1544 1547 1549 1551 1553 1555 1556 1557 1558 1558 1559 1559 1559 1559 1559 1558 1558 1557 1557 1556 1555 1553 1552 1551 1550 1549 1548 1547
1509 1510 1509 1513 1513 1529 1536 1524 1497 1500 1501 1505 1509 1513 1517 1521 1525 1529 1532 1536 1539 1542 1544 1547 1549 1551 1553 1554 1555 1556 1557 1557 1558 1558 1558 1558 1558 1557 1557 1556 1555 1554 1553 1552 1550 1549 1548 1547 1546
1501 1504 1508 1519 1518 1512 1522 1522 1494 1496 1499 1503 1507 1511 1515 1519 1523 1526 1530 1534 1537 1539 1542 1545 1547 1549 1551 1552 1554 1554 1555 1556 1556 1556 1557 1557 1557 1556 1556 1555 1554 1553 1552 1551 1550 1549 1548 1547 1545